Wind_Speed
2 1 3 5 7 8 7 7 7 5 3 3 3 4 5 6 8 12 13 7 3 3 10 10 7 9 12 15 13 8 6 7 7 9 9 8 6 6 8 10 11 13 12 7 8 14 17 17 18 19 20 20 21 22 24 24 24 25 24 23 23 24 24 25 25 25 25 25 24 23 22 22 21 20 20 20 20 21 21 20 19 18 16 16 17 19
3 0 6 9 9 9 6 6 5 3 2 2 3 5 6 5 9 13 14 10 1 2 8 9 7 10 12 13 10 6 5 4 4 7 8 9 9 6 9 11 12 11 6 4 7 12 15 16 18 19 21 22 23 24 25 25 24 25 24 22 23 24 24 25 25 26 26 26 25 23 23 23 21 19 18 18 20 20 20 19 18 17 15 15 16 19
3 3 11 12 7 4 5 3 4 3 3 3 2 2 5 5 6 10 12 7 1 3 6 8 7 10 14 11 7 5 5 5 5 6 6 7 10 8 8 10 11 9 7 7 7 9 12 16 19 20 22 24 25 25 25 25 25 24 23 21 22 23 24 25 25 25 25 25 25 23 22 22 21 19 19 19 18 18 18 18 18 17 16 15 16 18
1 7 10 6 4 4 5 2 5 3 2 4 4 1 5 7 3 5 8 6 1 3 7 8 6 8 11 9 6 7 6 5 5 5 5 6 7 9 9 8 9 10 10 10 8 7 9 13 18 21 22 23 23 23 25 25 25 25 22 20 21 22 23 24 24 24 23 22 22 21 20 20 19 17 18 18 18 17 17 17 18 18 17 16 17 19
7 10 5 1 3 6 4 3 5 3 3 4 6 5 6 9 6 6 7 8 8 5 4 4 5 5 6 6 6 6 5 5 5 5 7 7 6 8 8 6 9 10 10 9 8 7 8 10 15 19 21 22 22 23 24 25 25 25 22 21 21 21 21 22 23 22 21 20 19 18 16 15 16 16 16 18 18 17 17 17 17 18 17 17 17 19
9 8 4 3 5 4 3 5 4 6 3 4 5 9 10 10 10 9 6 5 7 6 2 2 5 6 5 5 7 5 6 7 5 5 7 8 7 7 7 6 7 9 8 8 8 8 8 7 11 16 19 20 20 20 22 23 24 24 23 21 20 20 19 20 21 21 20 19 18 17 16 14 15 16 16 18 18 18 19 18 18 18 18 17 18 20
6 5 1 4 5 1 2 5 5 8 3 3 5 9 11 9 8 8 7 1 1 6 4 3 2 7 5 5 8 4 6 9 7 6 8 7 6 5 6 6 6 7 7 7 7 7 7 7 8 10 12 13 14 15 19 21 22 22 22 20 20 19 19 19 20 21 20 19 18 18 17 16 15 15 15 17 17 18 18 17 17 17 17 18 19 20
4 5 3 0 2 1 3 5 6 8 6 4 8 7 7 7 7 7 6 4 3 5 5 3 1 5 5 6 7 4 6 9 9 9 9 7 7 6 6 7 7 7 6 6 7 8 8 7 7 9 11 11 13 16 18 20 21 21 21 20 21 20 20 19 19 20 21 20 19 18 17 16 15 14 14 15 16 15 15 15 16 16 17 18 19 20
3 3 3 2 1 2 4 6 5 7 4 8 9 5 5 6 7 6 5 5 3 2 6 5 0 3 5 5 5 4 3 8 9 9 9 8 9 8 7 7 8 7 6 7 7 7 6 7 11 16 17 16 16 18 19 20 20 21 22 22 21 21 19 18 18 19 20 19 18 18 17 16 16 15 13 13 14 14 14 15 15 16 17 18 18 18
3 4 4 3 1 4 6 8 5 7 6 7 5 4 4 3 3 2 3 5 1 2 6 7 1 2 5 5 4 3 2 6 8 8 8 8 9 9 8 8 8 7 5 4 5 6 8 11 16 21 22 19 18 19 19 20 20 21 22 22 21 21 19 18 17 17 18 19 18 18 18 17 16 14 13 13 14 14 15 15 15 16 17 18 19 18
4 2 3 3 3 5 5 7 4 6 7 5 5 5 4 4 3 2 1 1 1 2 7 7 2 3 3 5 4 3 3 5 5 6 7 8 9 9 8 8 8 7 4 3 7 8 10 14 20 24 23 22 20 20 21 21 21 21 21 20 20 20 20 19 18 18 18 19 19 19 19 18 16 14 14 14 15 15 16 17 17 17 18 19 18 18
7 5 2 3 3 2 1 4 3 1 1 1 2 3 3 5 4 3 4 2 1 5 6 5 1 4 3 5 5 5 6 5 5 6 7 8 10 10 9 9 8 7 6 6 8 8 9 12 16 20 21 23 22 21 22 22 22 22 21 22 22 23 23 22 21 20 20 20 20 20 20 19 18 16 15 15 16 16 17 17 18 18 18 17 16 16
5 4 5 5 3 1 2 2 5 5 5 4 3 5 4 4 4 3 4 2 2 6 5 2 2 2 4 7 6 7 8 6 5 6 5 7 8 10 10 10 8 7 6 5 7 7 8 9 10 13 18 21 22 22 23 24 23 23 23 24 25 26 26 26 24 22 21 22 21 21 21 20 19 18 17 16 16 16 17 17 17 18 18 17 16 15
4 5 7 5 2 2 4 2 4 4 4 5 2 3 2 2 3 3 4 3 3 6 4 2 2 3 4 5 6 7 8 7 5 5 5 4 5 8 9 8 8 7 5 2 6 7 8 9 9 11 16 19 19 21 23 24 24 25 26 26 26 27 27 26 25 23 22 22 22 22 22 21 19 18 18 18 18 17 18 18 17 18 18 18 17 16
2 4 4 2 2 3 2 1 2 3 4 4 2 4 2 2 1 3 3 3 5 6 5 3 1 2 3 4 5 6 8 6 4 3 2 3 5 6 6 7 8 7 5 2 3 4 6 10 11 13 16 19 20 23 24 23 22 23 23 23 23 24 24 23 23 22 21 21 22 22 22 21 20 19 18 18 18 18 18 18 17 17 17 17 17 16
0 4 5 4 3 0 4 3 2 1 3 4 2 4 2 2 3 2 3 5 3 3 4 2 2 4 3 4 5 4 6 5 3 4 5 6 6 5 6 6 6 6 5 3 4 4 5 8 10 13 16 19 22 24 21 14 14 15 12 12 13 14 16 18 17 18 19 19 20 21 21 20 19 17 17 18 18 18 17 16 16 16 16 16 17 17
2 4 9 10 3 4 5 5 3 2 2 2 2 1 3 3 5 2 4 2 1 2 4 1 2 5 4 4 5 6 7 7 5 7 6 5 7 7 7 7 6 5 4 3 5 5 7 8 9 12 14 18 22 21 12 7 8 11 9 9 9 8 10 13 14 15 16 17 18 18 19 19 18 17 17 17 18 18 17 16 15 14 15 16 16 16
1 5 8 7 5 4 6 4 2 2 1 3 1 4 4 1 3 2 2 3 3 3 5 1 2 5 4 4 6 8 8 8 7 7 6 6 8 9 9 9 9 7 5 3 6 7 8 8 6 8 11 14 15 12 7 10 8 7 7 7 7 7 7 9 12 14 15 16 17 17 18 17 16 16 17 18 18 18 18 18 15 14 14 15 15 15
1 4 6 3 4 8 8 4 3 5 3 4 1 2 1 1 2 1 1 2 2 3 5 3 3 3 3 3 6 8 8 10 10 8 7 9 9 9 9 9 10 10 9 5 1 4 5 4 2 4 6 7 7 5 5 8 7 7 7 6 5 5 5 5 8 11 14 17 16 15 15 15 14 15 18 20 20 19 19 19 17 15 14 14 14 15
2 2 6 4 1 6 7 4 3 6 5 3 2 3 2 2 3 2 1 2 2 3 4 4 5 4 4 3 4 8 9 10 12 7 5 7 7 6 7 8 8 7 8 8 6 3 2 3 2 2 1 0 1 2 4 5 5 6 6 7 7 6 4 4 5 7 11 13 13 13 14 17 19 19 21 21 21 21 20 19 18 16 14 13 14 15
3 1 4 5 4 5 4 3 3 5 4 4 4 4 4 2 1 2 2 2 2 3 3 2 4 5 4 3 3 7 7 8 9 5 3 4 5 6 6 6 6 6 6 7 7 6 4 1 3 3 2 1 1 1 4 5 6 7 7 8 7 6 5 5 6 10 11 12 15 16 17 21 22 20 21 22 22 21 19 17 17 16 14 12 13 15
3 2 4 5 4 2 4 7 6 5 4 3 2 3 3 2 1 3 4 2 1 1 3 2 4 6 5 3 3 3 3 4 6 5 3 4 6 6 6 6 5 5 6 6 6 6 5 2 2 3 4 6 7 7 9 11 12 11 9 9 9 8 8 9 10 13 13 13 16 17 18 21 21 19 20 23 24 22 20 18 16 15 15 14 13 13
2 1 3 5 4 5 10 11 4 1 2 2 1 1 1 1 1 1 4 4 2 1 2 2 2 6 5 3 3 2 2 2 4 5 4 5 6 7 7 7 6 6 6 7 7 6 4 4 3 4 5 8 12 15 15 15 15 13 12 11 10 11 11 12 13 12 11 12 14 16 16 18 19 21 22 24 25 23 20 19 18 16 16 15 14 13
4 2 3 6 5 3 7 7 2 3 2 2 2 2 2 3 2 3 4 2 1 3 3 2 4 6 5 3 3 3 2 4 4 4 3 4 5 7 8 8 7 6 7 7 8 8 7 6 5 6 6 8 12 15 15 15 14 12 12 11 10 11 12 13 14 12 10 11 13 16 17 16 18 22 23 23 24 23 20 19 20 19 19 17 16 15
3 2 3 7 8 5 5 5 5 5 4 2 5 5 4 5 4 2 1 2 1 5 5 4 5 6 4 3 3 2 2 4 2 3 3 2 4 6 7 7 7 7 7 6 6 8 9 9 8 9 10 9 10 13 13 13 13 12 13 13 13 12 13 14 14 13 10 8 9 12 13 12 13 18 20 21 23 22 20 19 18 19 19 19 18 17
2 1 1 2 5 6 6 5 3 4 4 2 4 6 6 6 5 4 2 0 4 5 4 5 6 6 6 4 3 3 1 2 4 4 4 3 2 5 7 7 5 6 7 6 3 3 4 7 9 11 15 16 11 6 9 12 14 15 16 15 15 15 15 15 14 12 10 7 5 6 7 8 9 12 15 17 19 20 20 19 17 16 17 19 20 19
2 1 1 4 6 7 7 7 4 2 5 6 6 5 6 8 7 3 2 4 5 5 5 8 8 8 12 10 4 4 5 5 6 5 3 2 1 2 6 7 6 3 3 5 5 3 1 3 6 9 13 18 19 11 4 9 13 16 18 17 16 17 18 17 16 14 12 9 6 3 1 3 5 7 9 11 13 14 16 17 18 18 17 18 19 20
2 2 3 7 10 10 9 8 6 6 9 12 11 8 7 8 6 4 7 8 3 3 9 11 6 6 14 14 6 6 8 7 7 7 6 6 5 4 5 7 7 6 4 4 5 7 4 4 5 2 4 6 12 17 15 8 6 14 17 16 17 18 19 19 18 18 16 14 12 9 5 2 1 4 6 8 9 10 11 12 14 16 17 17 18 19
1 4 5 6 11 12 7 5 7 11 12 13 14 11 8 9 10 10 13 10 5 6 12 12 10 11 15 16 9 8 9 10 9 8 7 5 5 6 8 10 10 10 9 9 9 9 7 6 9 9 8 7 5 10 18 19 4 12 15 13 15 17 17 18 19 19 19 18 16 14 10 8 5 3 2 4 6 8 9 10 11 12 15 16 17 18
1 3 3 3 11 16 9 4 8 13 12 13 14 11 8 10 12 12 12 11 11 13 14 15 18 18 16 15 11 8 10 10 7 6 4 5 7 8 9 11 12 13 13 13 13 13 11 10 9 10 13 15 16 16 15 18 12 5 12 11 12 14 14 16 18 19 20 19 18 16 15 13 11 9 7 4 3 5 6 7 9 10 12 14 16 17
1 2 2 2 9 16 8 2 6 10 10 13 15 13 12 11 11 11 11 11 11 13 15 16 17 17 15 11 7 6 7 6 5 8 8 7 8 9 9 10 12 14 13 12 13 13 13 11 9 8 11 16 21 22 19 17 16 7 10 10 10 10 11 14 17 19 20 19 17 17 16 16 15 14 12 10 8 6 6 6 7 9 10 11 14 15
1 3 3 2 6 12 6 3 4 8 9 11 13 13 13 10 8 7 6 6 8 10 13 13 10 11 11 8 5 5 6 6 8 10 10 9 9 9 10 11 12 13 13 12 13 13 13 12 11 11 12 17 21 21 19 18 14 10 11 9 9 10 11 14 15 18 18 17 17 17 17 16 15 15 14 13 12 10 8 7 7 7 8 9 11 13
3 3 4 2 4 9 7 6 7 8 9 8 6 5 7 6 6 6 4 5 6 6 8 7 5 6 9 10 9 9 9 9 9 8 7 8 8 8 10 11 13 13 12 12 13 14 14 13 13 15 17 21 22 20 17 15 14 14 13 11 11 10 11 13 14 16 17 16 17 17 17 16 16 15 15 14 13 12 11 10 9 8 8 9 9 10
2 3 4 2 2 7 9 6 5 6 7 5 1 4 6 4 4 8 8 7 6 5 4 4 6 10 12 12 11 11 11 11 11 9 5 5 6 8 9 11 13 14 12 10 11 14 14 12 12 15 20 24 23 21 17 13 13 14 13 12 12 11 11 13 14 16 16 16 17 17 17 17 16 16 15 15 14 14 13 12 11 10 10 9 9 10
2 3 3 2 2 5 6 4 4 6 7 4 3 7 6 2 4 7 6 2 7 8 8 9 10 10 10 10 10 10 11 13 13 9 2 6 6 7 10 11 12 13 12 10 10 11 11 9 8 11 15 19 20 18 15 14 15 14 13 13 12 12 12 13 14 15 15 15 16 16 17 16 16 16 16 16 16 16 15 14 13 13 12 11 10 10
3 2 2 1 3 3 2 2 5 6 7 6 3 7 7 3 6 9 6 2 6 7 7 9 10 10 10 11 11 10 12 14 11 5 2 10 10 9 10 10 12 13 11 10 10 10 8 7 8 10 10 12 15 15 16 17 17 16 13 13 13 13 13 12 12 13 13 13 14 14 15 16 15 15 15 16 16 17 17 16 15 14 13 12 11 11
4 2 1 2 3 2 2 4 6 8 10 7 3 3 4 2 3 5 5 3 2 4 4 6 8 10 11 11 12 13 13 11 6 2 7 14 13 11 11 9 10 13 13 9 3 8 11 9 11 13 12 12 14 17 19 19 18 15 12 10 10 11 10 9 10 10 10 11 11 12 13 13 14 13 14 14 15 17 18 17 15 15 14 13 12 11
3 2 1 2 2 2 4 6 7 9 7 3 3 4 2 4 6 4 5 4 0 1 2 4 6 9 11 10 11 13 12 8 5 5 10 16 15 13 13 11 11 15 16 16 13 8 6 3 7 9 10 15 18 19 20 19 14 9 8 7 7 6 5 5 6 6 7 8 9 10 11 11 12 12 12 12 13 14 16 16 16 16 15 14 13 12
4 1 1 2 3 3 5 7 7 7 5 4 7 7 4 5 5 3 5 5 1 0 1 2 4 6 8 9 9 8 8 8 7 7 10 15 15 13 12 10 11 16 19 18 18 18 16 8 2 6 8 16 22 22 18 13 8 5 4 4 4 3 2 1 2 2 3 4 5 7 8 10 11 11 11 11 11 12 14 15 15 16 16 15 14 14
6 4 2 3 5 5 6 7 6 5 5 5 6 5 6 8 5 5 8 5 3 5 3 2 5 6 5 7 7 4 3 4 6 8 12 14 14 13 12 10 8 11 16 18 18 18 17 12 5 6 11 16 17 15 12 7 4 2 1 2 3 4 4 4 3 2 1 1 2 4 5 7 9 10 11 11 11 11 12 12 13 16 17 17 16 16
4 3 3 4 6 6 7 8 5 4 5 5 5 4 7 8 5 6 8 4 5 10 7 4 7 8 5 5 5 2 3 4 6 9 11 12 14 14 15 16 15 12 13 16 17 15 15 15 14 9 4 4 6 3 2 1 1 2 5 6 7 9 9 9 7 6 5 4 3 3 4 5 7 8 10 11 11 11 12 12 13 14 16 17 18 17
3 2 3 4 4 4 5 5 5 6 5 4 4 5 4 4 5 6 6 5 7 10 8 7 8 8 6 5 5 5 6 6 7 9 9 10 12 13 15 18 18 16 16 17 17 13 10 12 16 17 11 8 8 6 4 5 6 7 8 9 10 11 11 12 11 10 9 9 7 6 6 6 7 8 8 9 10 10 11 13 14 14 15 16 17 17
3 2 3 4 3 2 3 4 4 5 4 4 1 4 2 2 6 7 6 7 7 8 9 9 7 5 5 5 6 6 8 9 9 9 8 9 10 11 13 16 15 13 15 17 15 11 9 7 10 14 12 8 7 7 6 7 11 11 11 11 11 10 11 13 14 14 14 13 12 11 10 9 9 9 10 10 10 10 11 11 13 14 16 16 17 17
3 3 2 3 1 1 2 4 4 5 6 4 4 6 6 7 9 8 7 7 6 7 9 8 6 6 6 7 7 8 9 10 11 9 8 9 9 9 11 15 16 14 13 16 17 14 13 13 12 11 10 9 11 12 11 12 14 14 12 10 8 8 9 10 12 14 15 16 16 15 15 13 12 12 13 13 12 12 11 11 11 12 14 16 16 17
5 4 3 3 5 5 7 9 9 9 10 10 9 9 11 13 11 8 7 7 8 9 8 7 7 8 8 8 9 9 8 9 11 11 10 9 9 9 10 12 17 19 18 17 17 14 13 16 16 14 13 12 12 12 12 12 12 11 9 7 6 7 7 7 9 12 14 16 18 18 18 18 17 17 17 16 16 15 14 12 11 10 12 14 15 15
7 6 4 4 7 10 10 10 12 14 15 14 12 10 10 11 10 8 8 9 9 10 9 8 9 9 7 7 9 9 9 9 10 11 11 10 10 10 10 12 16 21 22 20 18 14 11 11 12 11 11 12 10 8 8 8 8 9 8 9 9 9 9 9 10 11 13 15 17 18 18 20 21 21 21 20 19 18 17 15 13 11 10 11 13 15
4 4 5 6 8 9 8 7 10 13 14 12 12 12 12 12 11 9 9 10 10 11 11 10 9 8 7 8 10 11 12 10 9 10 11 11 11 11 11 11 14 18 20 21 21 20 16 13 12 12 13 14 13 10 10 10 10 11 11 11 11 12 13 13 13 13 14 14 15 16 17 19 21 23 24 25 24 23 21 19 16 14 12 11 12 14
2 2 4 7 8 8 10 13 14 15 15 13 13 13 12 13 13 11 10 10 11 12 12 10 9 9 9 10 11 12 12 11 11 11 10 10 10 11 10 11 14 17 20 21 22 21 17 15 14 13 14 16 16 15 16 16 17 17 16 15 15 14 15 16 16 16 16 16 16 16 17 19 21 23 26 28 28 28 27 25 21 18 17 16 15 14
3 5 6 7 8 9 12 15 16 16 14 11 12 13 11 11 13 12 11 11 11 12 12 12 12 12 11 11 10 11 12 13 12 12 12 10 10 10 11 13 17 19 21 22 24 23 19 17 17 17 18 19 18 18 19 21 22 21 20 19 18 17 18 18 18 19 20 19 19 19 19 20 22 23 26 29 31 32 33 31 28 25 24 22 19 17
3 8 7 5 8 10 10 10 11 13 12 9 10 13 13 13 14 14 13 12 12 12 13 14 14 13 12 12 11 10 12 13 13 13 12 11 10 11 13 16 18 20 21 22 23 22 21 19 18 18 19 20 20 20 21 23 23 23 23 22 21 21 22 22 21 22 23 22 22 21 21 22 23 24 26 29 31 33 34 34 32 29 27 25 23 21
5 9 6 5 10 13 14 14 11 11 14 14 13 15 15 13 14 17 16 15 15 15 14 14 14 14 14 14 13 12 12 12 13 13 12 11 13 15 16 18 18 19 22 23 21 20 22 22 20 19 19 20 20 20 21 23 24 25 25 25 24 23 24 25 23 23 23 23 23 23 23 23 24 25 27 29 30 30 31 33 34 33 30 27 25 24
Wind_Direction
95 35 282 244 245 241 229 209 215 245 249 266 288 273 277 285 283 283 280 279 65 11 289 286 296 286 286 286 290 324 324 282 286 292 286 277 257 223 224 225 218 224 228 220 208 213 213 202 193 194 196 196 198 201 204 204 205 208 207 203 202 203 203 202 201 201 202 202 202 203 205 207 208 210 214 219 222 226 231 233 234 234 236 237 235 234
60 108 250 236 233 243 243 218 221 263 280 263 262 280 289 269 269 280 282 288 63 138 272 291 309 291 281 282 295 327 309 270 269 283 287 290 284 251 230 231 227 229 228 191 191 200 201 192 187 188 189 190 191 193 198 201 201 204 204 203 202 201 200 201 201 201 203 205 204 202 203 205 207 208 209 214 220 224 230 235 238 238 240 242 237 233
26 250 252 248 230 246 268 222 188 214 229 236 234 283 287 269 275 280 278 289 112 159 272 296 305 289 284 290 298 290 269 252 238 252 270 283 288 275 245 237 235 235 224 209 202 191 188 182 179 182 187 192 193 192 194 197 197 198 200 201 202 201 199 200 202 202 203 207 208 206 205 205 206 211 213 216 222 227 231 236 242 243 240 240 237 231
257 247 246 243 175 192 263 225 155 201 244 219 214 217 271 278 296 278 285 317 342 226 261 278 294 287 287 305 302 266 266 281 269 272 279 265 271 278 266 247 236 232 224 216 204 189 181 174 175 181 186 189 190 187 188 190 191 192 196 199 201 201 200 200 203 205 206 208 210 210 212 210 207 212 218 220 224 228 233 237 241 245 241 235 233 230
250 248 223 173 173 181 250 263 157 194 274 232 213 205 241 271 259 236 275 322 326 293 242 270 326 301 290 319 299 280 313 316 305 315 307 288 279 289 291 267 238 230 226 217 200 190 186 179 180 182 182 184 184 184 186 186 187 189 192 196 200 201 202 203 204 207 208 208 209 208 209 211 209 213 217 218 222 225 230 234 234 238 239 233 229 227
265 251 183 236 258 176 224 272 189 180 246 280 232 211 220 249 256 255 278 342 351 320 281 27 350 296 303 315 274 289 334 312 308 311 286 282 289 299 306 290 255 237 223 210 197 191 194 184 176 177 178 180 180 180 183 184 186 189 191 194 197 199 201 205 207 207 208 207 205 204 202 200 202 207 212 215 219 221 223 227 229 233 237 234 229 227
267 274 152 241 277 231 228 274 217 174 166 297 241 208 213 232 248 266 274 286 338 292 298 40 311 273 312 304 263 288 323 301 305 297 275 275 285 287 295 296 279 251 222 197 187 183 187 178 168 168 166 164 166 171 178 180 184 187 189 191 194 197 201 206 208 208 208 208 206 206 205 204 204 205 211 216 220 223 223 224 226 230 237 238 234 229
240 293 345 127 324 317 262 271 226 164 133 243 245 212 204 223 237 243 240 223 238 279 315 8 206 261 294 272 266 307 314 299 303 294 290 296 297 301 302 305 299 265 224 190 184 181 177 164 137 116 118 136 154 165 173 175 178 184 188 191 194 197 200 204 207 208 209 209 209 210 211 214 218 216 216 218 222 226 229 228 228 230 236 242 241 234
208 261 277 136 95 267 244 250 219 146 153 249 255 246 227 232 244 243 238 248 263 327 308 305 229 251 272 268 296 346 317 290 288 282 289 302 307 316 320 317 312 285 234 197 182 169 146 119 116 118 125 138 154 163 168 171 176 184 189 192 194 196 198 201 205 208 210 213 214 214 216 220 226 228 225 221 221 226 231 232 231 233 239 246 249 243
237 224 219 139 173 240 244 257 221 159 210 265 289 294 289 280 273 283 264 258 331 34 260 265 224 221 275 286 305 343 301 272 276 276 283 295 306 314 323 330 330 310 259 190 138 116 109 112 122 126 128 134 149 161 166 172 180 187 190 191 192 195 196 198 203 207 212 217 219 220 220 222 226 228 229 226 220 222 227 230 231 234 242 247 251 250
287 280 193 155 211 219 241 270 242 186 230 291 350 326 323 346 353 23 359 184 79 288 252 258 223 172 274 287 258 245 228 232 259 283 297 309 318 321 328 340 343 333 329 82 87 97 112 120 122 121 124 133 148 161 167 174 183 187 190 190 191 194 195 197 203 207 211 216 220 221 222 223 223 222 224 225 223 221 221 226 229 233 239 244 251 254
329 327 269 272 265 211 235 289 304 340 294 345 33 24 358 334 351 21 360 37 139 261 260 271 263 153 212 267 254 254 247 228 235 262 295 314 321 325 331 340 343 345 9 68 90 110 121 118 117 118 127 139 150 162 168 174 180 185 190 193 192 194 196 198 201 206 210 214 218 220 221 223 223 220 220 222 225 224 222 225 228 231 236 238 243 250
319 278 284 305 301 63 65 333 325 354 27 43 57 55 31 336 353 356 320 331 217 251 262 296 317 200 228 251 255 273 281 271 239 233 263 297 313 323 330 336 340 356 23 78 117 130 126 120 122 129 138 146 155 166 172 176 179 185 194 196 196 197 198 198 200 202 206 211 216 218 220 222 222 220 220 222 225 228 229 231 231 231 232 230 230 237
316 301 318 328 325 37 80 70 328 323 345 356 33 78 63 46 13 309 281 298 275 267 279 343 340 285 284 268 239 255 274 271 257 246 253 285 320 321 324 338 351 8 16 79 138 137 133 133 139 144 145 151 160 170 178 183 184 189 197 198 198 200 199 196 197 198 202 208 215 217 219 221 220 220 221 224 227 230 236 239 237 236 236 231 229 235
327 304 314 346 315 341 44 137 240 244 292 313 155 131 102 120 151 265 244 254 276 281 294 325 325 240 276 277 244 253 271 270 271 283 318 5 349 329 337 0 10 11 358 1 84 104 135 143 146 150 154 157 164 176 187 191 188 190 197 200 202 202 199 195 195 197 200 205 212 216 218 219 219 219 222 226 230 233 239 243 244 245 246 243 240 240
21 252 272 299 261 316 14 306 239 200 300 289 137 93 27 178 173 233 231 220 243 290 288 282 247 225 236 277 289 309 304 301 333 3 24 13 347 350 8 12 19 12 355 30 73 91 130 145 152 160 164 162 168 182 188 184 182 184 191 200 205 206 202 199 199 200 203 207 213 217 219 220 221 221 223 227 232 236 240 243 247 250 254 256 252 248
15 279 300 317 304 87 24 312 302 26 295 292 39 8 271 188 153 198 284 297 26 308 278 256 274 289 328 320 325 355 329 308 342 8 12 352 341 1 11 360 4 7 6 74 111 128 146 164 174 175 172 168 175 183 169 127 155 173 182 189 184 189 201 203 204 207 209 212 215 219 221 221 222 223 225 228 233 236 237 239 245 249 252 256 256 253
353 276 295 311 294 325 350 323 306 351 86 81 18 268 269 34 96 109 306 326 360 292 281 327 286 299 333 311 323 353 329 311 338 351 346 353 2 7 2 351 349 346 354 77 135 153 166 180 183 182 181 175 180 180 123 95 114 140 158 167 159 169 192 203 209 214 217 218 220 222 223 222 224 230 234 235 236 236 234 234 236 238 243 247 249 249
341 290 290 284 270 308 340 22 314 316 32 93 186 269 14 12 313 352 301 271 299 286 286 310 306 279 246 268 326 337 318 321 332 335 354 9 11 6 353 348 350 347 348 358 132 169 180 195 211 207 194 175 181 187 126 113 114 114 123 126 130 152 172 194 213 221 224 224 220 214 216 220 223 228 231 232 232 230 227 227 226 225 231 238 240 238
330 325 288 286 329 320 335 16 334 317 347 21 348 354 32 179 212 239 214 188 193 254 274 306 322 289 236 244 307 305 304 316 312 315 17 18 4 7 355 346 352 355 351 344 333 313 230 202 202 226 228 139 206 192 135 127 129 125 120 119 125 130 139 171 202 221 228 224 210 200 213 224 220 218 221 224 225 225 225 226 225 221 221 226 232 232
345 21 279 295 341 331 321 328 300 288 303 320 322 327 325 292 260 264 251 153 148 215 242 283 296 272 248 232 256 282 300 309 304 308 61 46 11 11 6 357 354 354 353 346 338 328 316 168 139 153 143 91 35 89 112 112 110 112 119 128 131 132 151 177 202 218 217 205 200 201 211 222 221 217 219 220 220 220 221 224 227 227 225 223 227 230
2 318 272 299 329 312 258 247 250 261 261 244 243 263 257 251 302 293 285 317 63 163 190 205 272 271 257 221 228 263 309 330 338 347 10 27 19 11 11 14 7 359 350 344 345 338 332 3 96 124 125 115 95 74 74 81 85 91 103 116 126 141 165 180 197 212 206 193 201 209 211 216 219 218 220 222 220 217 215 214 216 221 223 224 227 230
308 285 280 284 255 237 257 256 240 272 262 190 159 155 158 112 62 263 261 282 342 327 215 174 237 267 258 218 220 212 126 62 32 15 351 2 6 360 5 8 7 10 356 347 351 343 336 356 41 82 90 95 93 84 77 78 81 86 95 106 124 140 156 171 181 193 194 189 202 217 222 225 225 221 221 224 222 219 217 214 210 209 212 217 223 229
314 350 344 303 276 246 273 282 20 45 52 67 4 5 358 308 277 210 215 215 273 282 279 263 255 267 274 258 243 229 137 91 76 60 21 1 356 354 356 353 355 3 359 360 0 346 341 1 30 57 58 68 85 87 87 90 91 97 106 114 126 133 139 150 155 158 169 182 196 210 221 228 229 227 226 227 227 225 224 220 215 212 212 212 214 223
313 352 360 329 318 318 328 348 3 356 19 25 316 316 320 306 299 293 339 66 258 245 226 230 250 256 270 299 303 291 79 80 99 127 107 42 5 351 344 341 343 349 351 5 16 352 341 354 8 12 12 29 74 92 96 103 112 117 116 117 121 122 124 129 134 139 146 162 185 200 210 216 221 225 229 233 235 236 235 232 227 222 219 217 216 219
215 290 326 315 298 290 306 319 309 312 319 298 298 312 321 324 322 316 331 357 263 255 209 217 251 266 274 288 320 319 58 150 238 217 152 121 22 342 333 330 327 339 338 335 2 360 340 357 1 357 358 360 12 78 125 137 140 130 119 115 117 118 119 122 125 128 128 130 147 179 197 202 207 219 229 238 243 246 246 246 244 238 232 228 226 226
144 4 243 216 247 257 269 275 260 296 292 275 281 288 284 288 293 304 288 244 250 264 252 247 253 271 276 273 265 271 254 223 239 248 213 187 203 312 318 309 293 289 304 308 315 304 295 57 22 1 2 352 337 319 233 171 154 136 123 119 116 114 113 112 111 108 104 100 94 92 153 209 220 231 240 248 254 258 259 258 257 254 249 242 237 236
64 323 251 235 254 255 255 272 288 296 281 277 281 274 252 256 264 253 249 247 240 267 267 264 255 254 272 274 246 218 240 245 244 243 235 226 212 209 241 259 262 255 241 248 267 270 259 137 122 76 27 348 324 313 300 272 163 121 109 105 102 98 99 98 97 93 87 81 74 66 52 29 299 258 257 258 262 267 268 268 267 265 261 256 249 244
316 270 236 234 266 269 257 269 285 280 276 277 279 275 260 248 237 231 241 240 214 239 263 275 274 258 265 275 261 213 223 234 233 235 233 228 221 217 220 223 227 230 224 216 218 229 234 196 162 154 160 175 221 280 290 289 281 103 97 95 94 91 93 95 93 88 83 76 70 65 60 55 50 37 324 275 271 272 269 270 273 272 268 265 260 255
205 252 242 259 288 286 277 244 258 272 281 284 284 284 274 253 237 232 240 239 229 239 252 262 266 263 262 267 260 228 225 229 236 260 265 239 231 226 220 217 221 227 226 219 213 207 206 203 184 167 168 181 201 214 239 268 268 139 112 105 97 92 93 95 92 87 82 77 71 67 65 62 57 52 45 27 342 305 291 287 283 279 275 272 268 265
221 257 288 327 292 289 294 171 233 265 280 286 293 296 287 275 261 245 239 239 238 245 253 254 259 265 267 268 260 242 246 252 264 274 264 243 236 230 223 221 225 233 236 228 218 209 203 194 183 185 181 187 203 199 191 221 240 189 124 113 105 100 96 95 93 88 83 78 74 69 65 63 59 54 49 41 31 13 341 320 304 294 290 283 277 273
257 276 316 358 281 283 312 39 300 293 294 287 288 289 286 282 272 254 235 233 236 245 257 259 257 264 277 301 312 284 283 281 262 260 258 251 242 233 231 231 230 234 235 230 222 212 206 196 184 188 188 190 200 192 179 197 207 160 129 129 122 111 102 95 91 88 84 80 75 70 65 62 58 54 51 46 40 32 19 359 336 317 307 297 291 286
210 254 288 283 265 281 305 347 335 323 315 295 280 296 307 303 298 307 313 286 267 256 262 269 276 299 323 344 345 330 325 314 292 281 279 278 275 264 254 249 247 246 236 226 221 210 205 206 199 189 185 187 187 175 169 182 171 143 139 140 126 114 105 96 90 87 83 77 72 68 64 61 58 54 48 44 42 37 30 21 4 346 330 315 307 299
208 226 256 237 238 279 296 331 347 315 293 275 129 44 353 331 341 334 315 310 332 346 326 323 337 342 345 345 339 332 324 315 305 297 306 329 324 312 300 285 271 264 252 228 219 213 207 207 206 195 185 177 169 160 161 167 151 139 140 134 121 114 106 96 89 84 79 74 68 63 60 58 55 53 46 41 40 37 31 24 14 4 352 337 325 310
251 230 250 239 227 272 302 332 307 271 262 241 91 36 0 346 24 345 310 345 30 15 360 356 346 338 337 329 324 319 309 307 297 277 309 15 360 341 331 321 309 293 269 234 215 214 209 198 199 206 191 168 154 154 161 160 151 148 143 129 118 112 104 94 87 82 76 71 66 60 57 54 51 48 43 38 35 31 28 22 15 10 2 351 340 325
209 217 220 226 251 281 314 263 259 279 301 303 344 21 10 4 10 353 330 39 42 15 2 357 339 331 336 331 328 323 310 305 291 247 41 11 358 353 340 327 331 323 290 238 203 189 183 182 191 203 194 162 150 159 169 168 164 159 144 127 118 112 106 96 86 82 77 72 66 59 57 55 51 46 39 35 31 26 23 18 14 13 8 357 349 337
165 180 249 261 256 271 273 254 272 302 312 311 316 20 21 336 324 330 296 274 31 33 7 351 335 332 336 336 339 335 323 317 309 315 1 353 347 344 334 325 335 336 326 316 267 168 158 174 197 199 191 175 170 176 181 180 174 159 136 122 115 108 103 94 84 79 73 68 62 56 53 53 52 48 40 32 26 21 19 15 11 11 7 359 352 342
150 176 222 287 292 343 322 298 295 294 290 279 243 238 226 239 249 261 266 260 154 63 338 345 339 327 328 334 343 344 340 341 344 337 341 342 342 339 333 334 345 341 339 347 358 26 69 128 203 206 191 181 186 193 192 185 172 144 122 121 119 110 102 90 82 75 64 58 52 45 42 41 41 42 39 33 26 20 16 13 10 9 6 359 351 342
354 286 201 280 291 303 293 281 279 279 274 251 239 240 261 277 262 271 282 267 238 238 278 352 332 315 320 327 338 355 358 345 331 324 331 336 337 334 324 327 343 335 329 341 360 9 8 3 232 227 225 204 199 199 195 183 158 117 113 138 151 157 167 148 116 99 69 49 41 33 29 27 26 26 27 27 25 19 14 11 7 4 2 358 351 344
330 309 288 275 269 261 263 266 265 270 279 267 242 248 303 303 299 312 298 288 336 322 279 247 294 294 301 313 323 356 1 317 306 311 321 327 330 330 322 320 327 321 318 331 350 2 0 349 309 241 231 226 218 204 189 174 139 117 204 229 225 241 259 265 253 225 226 324 19 16 12 13 12 11 11 11 12 13 11 7 2 359 357 354 350 345
299 297 274 263 259 252 256 264 266 270 277 269 246 253 287 297 305 301 290 294 318 305 292 278 289 290 287 293 299 290 256 255 272 292 309 323 327 328 328 327 324 318 316 319 324 338 352 343 325 311 284 278 289 267 188 198 249 269 284 277 254 255 269 276 271 258 252 256 275 309 331 347 351 354 357 356 356 360 1 0 358 355 353 352 349 345
297 299 277 269 260 244 249 262 283 288 258 208 222 249 259 294 301 282 283 297 287 282 285 283 280 282 280 272 271 277 279 280 289 298 309 320 322 322 327 330 329 327 328 323 317 320 334 331 320 317 327 345 344 341 337 303 279 272 280 276 263 262 270 272 268 265 265 263 266 276 291 310 324 332 339 340 340 342 347 352 352 348 347 348 347 344
274 280 280 273 258 246 269 275 286 283 237 173 232 295 262 253 281 281 294 299 275 271 285 283 269 266 270 268 266 275 285 290 293 299 304 309 313 316 321 324 321 314 312 310 303 289 274 280 300 307 311 315 300 290 290 268 253 249 251 253 260 269 272 268 265 266 269 269 269 274 280 290 302 311 318 323 323 323 329 338 342 341 341 340 340 339
253 228 232 269 268 146 243 247 238 250 252 246 284 289 267 263 274 280 287 286 277 280 284 274 253 239 240 254 264 269 278 287 289 290 292 296 304 309 311 313 313 305 287 274 272 267 248 239 250 263 266 259 250 247 241 232 232 237 240 246 261 272 269 268 268 268 271 273 273 277 281 286 294 301 307 311 310 308 311 318 325 330 331 331 333 333
246 217 199 244 258 241 239 250 259 270 276 278 277 269 266 273 277 269 264 272 280 283 276 259 250 243 237 248 261 263 268 276 281 286 287 285 291 295 295 297 299 298 288 272 266 261 238 231 240 246 249 252 244 232 224 221 224 232 243 264 286 281 269 269 267 266 269 272 274 278 284 289 294 298 301 303 302 299 301 302 303 309 315 317 321 322
260 257 232 239 264 266 256 247 256 267 271 273 275 271 267 271 273 269 269 273 274 275 271 260 253 247 242 253 264 267 267 263 268 280 286 286 286 288 292 291 287 289 292 289 286 285 272 259 263 267 270 277 269 242 231 237 239 247 268 291 298 286 275 267 259 258 262 264 267 273 280 287 294 299 301 300 297 294 294 294 290 288 291 298 305 308
253 247 235 240 262 276 270 245 246 259 268 275 281 282 277 272 269 266 267 268 267 269 270 262 252 251 256 265 269 270 268 263 265 274 279 283 286 286 288 286 281 280 282 284 288 294 294 289 286 284 285 289 285 270 267 276 276 276 286 294 291 281 271 262 255 251 249 250 254 261 271 281 290 297 299 299 296 293 289 287 284 277 270 272 283 291
273 271 260 253 251 256 268 274 273 270 269 273 277 279 278 275 272 266 260 259 261 264 264 258 256 264 272 271 266 265 266 270 273 274 272 271 276 281 283 281 280 280 280 282 288 293 292 285 281 279 278 281 283 281 280 283 285 285 286 286 283 275 263 256 253 249 244 242 245 253 264 275 283 289 293 294 294 291 287 283 281 274 267 265 266 271
254 268 271 273 273 264 265 276 284 282 273 259 257 265 271 273 274 272 266 262 259 260 262 264 266 270 270 264 258 261 269 273 272 270 269 266 267 273 275 275 277 278 278 280 284 286 285 279 275 273 272 274 278 281 282 284 287 288 286 283 281 272 259 253 253 252 248 245 244 247 256 266 273 280 284 286 287 286 284 282 280 276 273 272 267 264
218 259 270 285 285 276 267 269 281 287 283 264 256 267 274 276 278 278 272 267 264 261 262 267 270 270 267 260 255 258 265 268 269 268 266 263 263 265 266 270 274 275 273 272 274 276 276 271 267 266 267 271 277 279 280 283 287 288 286 284 281 272 262 257 254 253 252 250 248 248 250 255 261 269 275 277 279 280 281 282 281 277 275 274 271 268
217 254 260 258 264 269 274 276 274 276 280 279 277 276 274 273 277 277 274 272 268 265 263 265 269 272 272 269 262 255 255 260 264 266 266 265 265 265 264 264 267 270 272 273 275 278 279 278 275 268 262 264 268 271 275 280 283 284 284 283 281 276 268 262 257 255 256 255 255 256 255 253 255 261 267 270 273 275 278 282 283 281 277 273 272 272
Height
774 781 787 786 784 782 780 781 781 782 785 788 791 793 793 795 788 772 763 757 756 764 759 752 756 754 747 739 732 732 732 730 728 724 722 720 720 721 720 719 719 717 713 713 718 720 722 725 728 731 734 737 739 741 743 745 748 750 754 756 759 761 763 765 766 768 769 771 773 775 776 777 779 780 782 783 785 786 788 789 790 791 793 795 797 798
777 787 786 778 776 776 777 780 781 784 786 788 791 793 793 794 786 768 761 757 755 764 759 750 755 752 743 738 733 733 733 730 729 727 724 721 720 720 719 717 715 713 712 714 717 718 721 724 725 729 732 734 736 738 740 743 746 749 752 756 758 760 763 764 765 767 768 769 771 772 774 776 778 779 780 782 783 785 787 788 789 790 792 793 795 796
787 788 778 770 773 776 776 779 782 784 786 788 790 794 794 787 780 769 758 755 757 763 760 752 757 752 740 736 734 733 731 728 728 728 726 725 722 719 717 715 713 713 714 714 715 716 718 721 724 726 729 732 734 736 739 742 745 748 752 755 758 760 762 764 765 766 768 769 770 772 773 774 776 778 779 781 782 784 786 787 788 789 790 792 793 794
792 781 769 768 772 774 776 777 781 783 784 787 789 793 792 780 782 779 760 754 758 760 760 756 759 754 742 737 733 732 731 727 724 724 724 724 722 718 716 714 713 712 712 712 714 716 718 720 722 723 726 730 733 735 738 741 744 747 750 754 756 759 761 763 765 766 768 769 771 772 773 774 776 777 779 781 782 783 785 786 787 788 789 790 791 793
784 770 765 769 770 772 776 777 780 784 784 784 783 787 786 775 777 778 765 761 758 756 756 756 761 754 742 740 734 730 732 727 724 723 720 719 718 716 714 712 710 709 709 711 713 715 716 717 719 721 724 728 732 734 737 740 743 746 749 752 755 758 760 762 764 766 768 770 771 772 773 775 776 777 778 780 781 782 783 785 785 786 787 788 789 791
775 764 763 767 768 770 775 776 777 780 783 782 775 773 773 768 769 770 769 772 770 764 754 755 770 762 742 741 735 730 732 727 726 726 721 719 718 716 714 711 709 706 706 708 711 713 714 716 718 720 724 728 732 735 737 740 742 745 748 751 754 757 759 761 763 765 767 769 770 771 773 774 775 776 777 778 780 781 782 783 784 785 786 787 788 789
769 761 762 766 767 770 774 775 771 772 782 784 768 759 762 764 768 768 769 775 777 771 756 754 773 771 750 740 734 733 734 727 724 723 718 718 719 717 715 712 709 706 704 706 708 711 713 716 718 722 726 731 735 737 738 740 742 744 747 750 752 755 757 759 761 764 766 768 769 771 772 773 774 775 776 778 779 780 781 783 784 785 785 786 787 788
765 761 764 766 767 771 774 772 765 766 779 778 758 753 760 762 765 766 766 773 771 766 761 755 762 771 761 744 736 738 736 728 724 719 714 713 714 716 715 712 709 706 704 704 706 708 711 715 719 724 729 732 735 736 738 739 741 743 745 748 750 752 754 757 759 762 764 767 768 770 772 774 775 775 776 777 779 780 781 783 783 784 785 785 786 787
762 763 764 765 769 772 769 763 760 763 771 764 750 752 758 757 760 761 764 771 768 770 772 759 756 771 766 744 739 744 738 731 726 718 715 713 712 713 713 712 708 706 704 703 704 708 712 716 719 722 726 730 734 735 737 739 740 741 743 745 747 750 753 755 758 761 763 766 768 769 771 773 774 776 777 777 778 780 781 782 782 783 784 785 785 786
761 761 759 763 768 767 761 756 756 762 763 754 750 755 755 756 759 761 766 767 768 778 777 760 757 769 766 746 738 742 740 735 727 719 717 716 715 714 714 712 709 706 705 704 706 711 714 716 717 719 723 728 732 734 735 736 738 739 740 742 745 748 751 754 757 759 762 764 766 768 769 771 773 774 776 777 778 779 779 780 781 782 783 783 784 785
760 758 758 760 761 758 755 752 752 756 756 751 753 757 755 759 762 765 769 767 774 780 768 759 760 766 770 754 736 735 735 732 727 721 719 718 717 717 715 713 711 708 707 708 711 714 714 715 716 719 722 726 730 731 732 732 734 737 739 742 745 747 750 752 754 757 759 761 763 765 766 768 770 772 774 776 777 777 778 778 779 779 780 782 783 786
763 760 760 757 754 753 754 754 752 753 755 754 758 761 762 765 764 767 770 770 781 780 762 763 766 767 773 757 734 731 730 730 731 725 723 723 721 720 718 717 714 713 712 712 715 715 714 715 718 720 722 724 727 728 729 729 731 735 738 740 742 744 746 748 750 753 755 758 760 761 763 765 767 770 772 773 775 776 776 777 777 778 778 780 782 784
766 761 759 756 753 754 758 760 757 754 755 757 760 764 772 779 779 780 779 779 785 776 763 768 768 766 767 749 733 731 728 730 732 728 727 727 726 724 723 722 719 717 717 715 714 714 715 717 719 719 720 721 724 725 726 726 727 731 734 736 738 740 740 742 745 748 751 754 756 758 760 762 765 767 769 771 772 774 775 775 776 776 777 778 780 780
774 765 758 757 757 756 760 765 766 762 758 760 763 767 777 789 797 799 793 792 791 774 764 769 769 767 760 743 737 735 730 731 732 729 730 729 729 729 726 725 723 721 721 717 714 713 714 716 717 717 717 718 721 724 724 723 725 728 731 733 735 736 737 738 740 744 747 750 753 756 758 760 763 765 767 769 770 771 773 773 774 774 775 777 777 778
792 783 767 764 764 760 759 763 767 764 760 762 763 766 774 782 794 800 793 789 786 774 770 770 767 764 754 742 739 736 732 732 731 730 730 728 729 729 727 727 725 723 722 720 719 718 716 715 715 716 715 716 719 721 722 723 725 727 730 732 734 736 737 737 739 742 744 748 751 754 756 758 760 763 765 767 768 769 770 771 772 773 773 775 776 777
799 790 771 766 765 762 763 762 760 761 765 767 763 766 774 775 780 788 786 783 785 784 779 771 762 755 745 738 737 736 733 731 729 729 728 729 729 728 728 728 727 726 725 723 722 723 721 719 718 716 714 714 716 719 721 724 726 728 732 735 738 740 740 740 742 743 745 747 750 752 755 757 760 762 764 765 766 767 768 769 770 771 772 773 775 776
801 791 771 765 763 761 767 764 757 763 767 767 767 770 772 769 771 780 785 784 788 790 783 772 763 752 745 742 736 735 734 729 730 733 732 732 732 731 732 732 730 728 726 724 723 723 723 722 719 717 716 715 715 718 722 724 726 729 733 736 737 739 741 741 743 744 746 748 750 752 755 757 759 761 762 763 765 765 766 767 768 769 770 771 773 775
803 798 779 772 769 762 764 763 758 761 762 766 773 771 766 767 770 778 787 788 789 792 783 774 769 761 758 753 742 738 737 734 736 738 736 736 737 739 740 738 737 734 730 726 723 722 722 721 720 719 718 717 717 721 723 724 727 730 732 734 735 736 739 740 742 744 745 747 749 751 754 757 760 761 762 761 762 762 763 764 765 766 767 768 770 772
800 800 786 778 778 770 764 764 764 761 758 764 770 766 768 779 780 782 789 790 794 798 787 776 774 769 764 759 754 751 749 748 747 743 742 746 747 748 746 742 741 739 737 733 727 725 723 723 723 722 721 719 719 723 725 725 728 730 731 732 733 735 737 739 741 742 744 746 749 752 754 757 757 756 756 756 756 757 758 759 760 762 764 766 767 769
798 802 794 782 780 778 770 770 777 774 765 763 766 767 772 779 780 782 785 785 791 798 793 784 778 770 765 768 771 768 764 763 758 749 749 753 752 750 748 745 743 742 742 740 736 731 727 725 724 724 723 722 722 724 725 726 729 729 730 731 732 734 736 737 740 741 743 747 750 753 752 750 747 746 748 750 752 754 755 756 758 759 761 763 765 766
799 805 803 788 783 786 783 780 782 783 778 774 774 777 779 776 776 780 781 780 784 790 792 791 784 771 765 770 774 771 769 767 762 755 752 752 750 749 748 746 745 743 742 741 740 737 732 728 726 724 724 724 725 726 726 727 729 728 730 731 731 732 734 735 737 738 741 744 747 747 743 740 741 743 744 747 750 752 754 756 757 758 760 761 763 765
806 808 806 800 796 796 790 780 776 777 779 780 780 782 783 781 781 787 789 784 783 789 792 796 792 773 761 765 768 767 766 763 762 760 757 754 751 748 747 745 744 744 743 741 739 738 736 732 730 727 724 724 725 727 727 728 728 728 730 730 730 731 732 733 735 736 738 741 741 738 735 735 739 742 743 744 747 749 750 751 753 755 758 759 761 763
808 809 808 805 800 795 786 777 776 779 778 779 780 781 784 785 785 791 795 788 787 793 793 796 795 774 758 763 766 763 761 759 759 760 760 758 754 749 747 745 742 741 741 741 740 739 738 735 733 731 728 726 724 724 727 728 729 730 732 732 732 732 731 732 733 735 737 739 739 737 735 737 739 740 741 742 744 745 746 747 748 750 752 755 757 760
806 809 811 805 794 787 781 776 778 779 778 782 785 784 786 786 783 786 789 787 789 792 788 793 794 772 756 761 764 761 758 754 754 755 756 757 755 751 748 745 743 740 739 740 741 741 740 736 734 733 732 730 726 725 728 731 733 735 735 735 736 734 733 732 733 734 736 737 738 738 738 739 740 740 741 741 742 743 744 745 746 747 748 750 753 756
812 812 814 813 806 798 790 786 787 785 785 792 793 789 786 784 783 785 787 790 791 786 783 791 789 768 757 761 762 758 755 750 750 750 751 752 753 752 749 746 745 743 740 739 740 743 744 740 738 737 736 735 732 730 731 734 737 739 738 737 737 735 734 733 733 734 734 735 737 737 738 739 740 740 741 741 742 742 743 744 745 747 748 749 750 752
816 816 815 820 823 818 810 806 805 802 800 799 796 792 788 786 788 790 792 796 793 784 781 784 779 765 758 760 759 755 753 751 749 746 746 748 751 752 751 748 747 745 744 742 741 744 746 744 743 743 741 741 740 739 739 740 741 740 738 737 737 735 735 734 734 734 735 736 736 737 737 737 738 738 739 739 740 741 742 743 744 746 748 749 749 750
816 818 815 816 818 818 814 809 808 810 808 804 800 798 795 791 790 793 797 797 790 785 781 774 770 768 760 756 756 754 751 751 748 745 744 742 743 747 749 750 749 746 745 744 743 744 744 744 746 748 746 746 749 750 749 746 743 739 736 737 737 736 735 734 734 734 735 736 736 736 736 736 736 736 736 737 738 739 740 741 742 744 746 748 749 750
818 821 817 814 811 809 808 807 807 809 807 802 800 800 798 794 791 793 795 789 785 788 783 768 766 772 762 752 753 753 750 750 749 746 744 739 738 741 744 748 749 746 743 743 744 745 745 744 746 750 750 750 752 754 752 749 744 737 734 735 735 735 734 734 734 734 735 736 735 735 735 734 735 735 735 735 736 737 738 739 740 741 743 745 747 749
822 822 815 813 809 805 807 810 808 806 803 798 797 797 797 795 793 791 787 782 783 787 779 767 766 770 760 750 751 750 746 745 744 743 743 741 740 741 742 745 745 741 737 737 740 742 745 745 743 744 748 750 751 754 754 751 744 736 734 735 735 735 735 735 735 735 735 735 736 736 735 735 734 734 734 734 734 735 736 737 738 739 740 742 744 747
822 820 814 814 810 803 806 810 806 802 800 795 793 794 794 792 789 787 784 780 779 777 771 765 764 761 752 746 747 746 742 742 742 742 742 742 741 741 742 743 741 736 731 731 732 733 737 741 739 739 743 746 748 751 753 753 747 739 737 737 736 736 737 736 735 735 735 736 736 736 736 735 734 734 733 733 733 734 735 736 737 737 738 740 742 744
821 820 814 816 815 805 801 807 805 801 800 798 795 793 791 789 787 785 784 780 778 776 770 766 766 758 746 742 745 743 741 743 744 742 740 739 739 739 739 739 737 733 730 729 729 728 729 734 736 737 740 743 744 745 747 750 749 743 739 738 738 738 737 736 735 735 735 736 736 737 736 735 735 734 734 733 733 734 734 735 736 736 737 738 739 741
820 821 815 818 823 810 801 808 809 803 803 802 797 792 788 785 783 780 780 779 777 775 771 769 770 761 748 746 748 745 743 745 744 741 739 737 737 736 736 735 733 731 729 727 727 727 727 729 730 732 734 739 742 742 742 746 746 743 740 740 739 738 737 736 735 735 735 736 736 736 736 735 735 734 734 734 734 734 734 735 735 736 736 736 737 739
820 821 819 823 827 815 807 811 811 810 811 802 793 794 793 787 783 780 779 777 774 774 774 773 772 766 761 761 759 754 752 751 747 744 742 740 738 737 735 732 729 726 725 724 723 724 724 725 724 723 726 733 738 739 740 743 743 740 740 740 739 737 737 736 736 736 736 736 736 736 736 735 735 735 735 734 734 734 734 735 735 735 735 735 736 736
822 823 823 824 826 819 811 812 815 821 818 801 791 799 799 793 793 793 789 785 784 785 785 783 781 779 776 774 771 766 762 757 754 750 747 746 746 744 740 736 731 726 723 722 721 720 721 722 722 723 724 728 731 733 737 740 740 738 739 739 737 737 737 737 737 737 737 736 736 735 735 735 735 736 736 735 735 735 735 735 735 735 735 735 734 734
823 826 827 824 824 821 814 815 824 823 807 792 791 799 797 792 795 796 793 793 796 794 792 790 789 786 782 778 775 771 764 758 755 750 747 747 748 747 744 740 735 730 724 720 719 719 719 721 723 726 726 724 724 728 733 736 737 739 738 737 736 736 736 737 737 737 737 737 736 736 736 736 736 736 736 736 736 735 735 735 735 735 734 734 733 733
824 827 828 825 823 821 817 818 819 808 791 785 791 796 795 794 795 796 795 795 796 795 793 792 790 785 783 780 774 768 763 757 751 746 746 746 746 745 745 742 737 733 726 718 715 716 717 719 724 728 727 722 723 728 732 734 736 737 736 735 735 735 735 736 736 736 737 736 736 736 736 736 736 737 737 737 737 736 736 736 735 735 734 733 733 733
824 825 827 826 821 820 823 821 812 803 796 791 794 799 800 799 799 801 801 795 792 794 793 790 789 784 781 779 773 767 762 753 745 744 746 746 744 743 743 740 738 735 729 722 717 714 714 717 722 725 725 723 725 729 732 734 734 734 732 732 732 733 734 735 735 735 736 735 735 735 735 736 736 737 737 737 737 737 737 736 736 735 734 733 732 732
824 824 825 827 823 820 828 828 818 814 808 798 797 800 800 799 796 797 799 793 788 792 791 787 787 784 779 778 774 769 764 757 752 751 750 746 743 741 739 738 736 735 733 730 724 718 717 719 722 724 725 726 728 730 732 732 732 730 729 730 731 732 733 734 734 734 734 734 735 734 734 735 735 736 736 737 737 737 737 736 736 735 734 733 732 731
823 823 822 827 828 825 830 831 823 817 806 794 793 795 796 797 793 793 798 791 782 786 788 784 784 783 778 775 773 770 771 769 764 759 753 749 746 743 741 739 737 737 737 735 729 724 724 726 726 726 728 729 729 729 730 730 729 728 728 730 731 732 732 733 734 734 734 734 734 734 734 734 734 735 735 736 736 736 736 736 736 735 734 733 732 731
826 826 824 829 831 828 829 828 820 812 800 791 792 795 796 796 792 796 801 790 776 778 781 778 779 778 775 774 772 771 773 773 767 761 755 752 749 746 743 740 738 739 739 737 733 729 730 732 732 732 732 731 729 728 728 728 727 727 729 730 730 731 731 732 733 734 734 734 733 733 733 733 733 734 734 734 734 735 735 735 735 734 733 732 731 730
832 830 829 831 832 832 830 826 818 808 797 790 791 794 795 792 791 797 797 784 775 775 774 773 774 772 770 771 770 768 768 766 764 759 756 753 751 747 744 740 738 738 738 737 735 733 733 733 734 732 730 729 727 726 726 726 726 727 728 729 730 730 730 731 732 733 733 733 732 732 732 732 732 732 733 733 733 733 734 734 734 733 733 731 730 729
838 835 832 830 830 830 825 823 823 812 794 788 790 790 790 792 793 791 783 776 775 773 770 771 771 769 768 769 767 766 763 760 759 757 755 754 753 750 746 742 739 738 738 737 736 735 735 734 733 730 727 726 726 725 726 727 727 728 729 729 729 729 730 731 731 731 732 731 731 731 731 731 731 731 731 731 731 731 732 732 732 732 731 730 729 728
836 838 836 829 827 831 827 825 827 813 791 786 791 790 788 790 788 782 777 776 776 772 770 770 769 767 768 766 764 763 760 757 756 755 754 753 751 749 747 744 742 741 740 738 737 736 736 735 732 730 728 727 727 727 728 729 729 730 730 729 729 729 729 730 730 730 730 730 729 729 729 729 729 729 729 729 729 729 730 730 730 730 729 728 727 726
832 835 837 828 826 837 836 822 810 797 785 786 791 790 786 783 779 778 778 777 773 770 769 768 766 765 765 762 760 759 757 754 753 751 751 751 749 748 747 745 744 743 742 741 738 736 736 734 732 731 730 729 729 729 729 730 730 730 730 729 729 729 729 728 728 728 728 727 727 727 727 726 726 726 726 726 726 726 726 727 728 728 727 727 726 725
825 824 829 827 821 822 819 805 793 786 783 784 785 784 782 778 775 776 777 774 771 769 767 765 763 762 760 758 756 755 753 752 750 747 747 747 746 746 745 744 743 742 741 740 738 735 735 733 732 731 730 729 729 729 728 729 729 729 729 728 728 728 727 727 726 726 725 725 724 724 723 723 723 723 723 723 723 723 723 724 725 725 725 725 724 724
818 817 822 822 815 806 798 792 790 787 783 780 780 779 778 776 774 773 773 771 768 765 763 762 760 758 757 756 754 752 750 748 747 745 744 743 742 742 742 741 740 739 737 735 733 732 732 731 730 729 728 726 726 726 726 726 726 726 726 726 726 726 726 725 725 724 723 723 722 721 721 720 719 719 719 720 720 720 720 721 721 722 723 723 722 722
816 818 818 815 813 807 796 786 786 785 781 779 778 775 773 772 770 770 769 767 764 761 760 758 757 755 755 754 752 750 748 745 744 743 741 740 739 737 737 738 737 736 734 732 730 729 729 728 728 726 725 723 723 723 723 723 723 724 724 724 724 724 723 723 723 723 722 721 720 720 719 717 716 715 715 715 716 716 716 717 718 719 719 720 720 720
816 817 815 810 808 806 795 783 781 781 778 778 776 772 769 768 765 764 764 762 759 757 755 754 753 752 750 750 749 747 745 743 742 741 739 738 736 734 733 733 732 731 730 728 727 726 725 725 724 723 722 721 720 720 720 720 720 720 720 721 721 721 720 720 720 720 719 719 719 718 717 716 715 713 712 712 712 712 712 713 714 715 715 716 717 717
816 815 810 806 804 801 793 785 780 776 772 772 773 769 766 764 762 760 759 757 755 754 752 749 748 747 746 746 745 743 742 740 739 737 736 735 733 731 730 728 727 727 726 725 724 724 723 723 722 721 719 718 718 717 717 716 716 717 716 717 717 717 717 716 716 716 716 716 716 715 715 714 713 712 711 710 708 708 708 709 710 711 711 712 713 714
815 811 806 807 806 798 788 784 781 776 768 765 766 765 762 761 758 755 754 753 751 750 748 746 744 743 741 741 741 740 739 736 735 734 732 730 729 728 727 725 724 723 722 722 721 721 721 720 720 718 717 716 715 715 714 713 713 713 713 713 713 713 713 712 712 711 711 711 711 711 711 711 711 710 709 708 706 705 704 704 706 707 707 708 709 710
810 804 803 806 801 788 779 777 778 775 765 758 759 759 757 755 754 750 748 747 745 743 743 741 739 738 737 735 735 736 734 732 730 730 728 726 725 724 723 723 722 720 719 718 717 716 716 715 715 715 714 714 713 713 712 711 711 710 710 710 710 709 708 708 707 707 706 706 707 706 707 707 707 707 707 705 704 704 702 701 701 702 703 705 706 706